Regional Weather Roundup
Issued by NWS Grand Forks, ND

Home | Current Version | Previous Version | Text Only | Print | Product List | Glossary Off
Versions: 1 2 3 4 5 6 7 8 9 10 11 12 13 14 15 16 17 18 19 20 21 22 23 24 25 26 27 28 29 30 31 32 33 34 35 36 37 38 39 40 41 42 43 44 45 46 47 48 49 50

000
ASUS43 KFGF 291331
RWRFGF
PRAIRIE TO PINES  WEATHER ROUNDUP
NATIONAL WEATHER SERVICE EASTERN NORTH DAKOTA/GRAND FORKS ND
800 AM CDT WED JUL 29 2015

 **SATELLITE DATA USED TO AUGMENT SKY COVER AT AUTOMATED STATIONS**
 *****  WEATHER ACROSS EASTERN NORTH DAKOTA  *****

CITY           SKY/WX    TMP DP  RH WIND       PRES   REMARKS
GRAND FORKS    CLOUDY    65  55  70 W20G32    29.68R
GRAND FRKS AFB PTSUNNY   66  55  67 NW22G43   29.69R
GRAND FRKS NWS   N/A     63 N/A N/A NW30        N/A
DEVILS LAKE    MOSUNNY   64  52  63 W30G36    29.77R
FARGO          PTSUNNY   65  52  62 W21G31    29.78R
WAHPETON ARPT  SUNNY     64  48  55 W22       29.87S
$$

 ***** WEATHER ACROSS CENTRAL AND WESTERN NORTH DAKOTA  *****

CITY           SKY/WX    TMP DP  RH WIND       PRES   REMARKS
BISMARCK       SUNNY     63  48  58 W14       30.00R
MINOT          PTSUNNY   62  51  67 W18       29.88R
JAMESTOWN      SUNNY     65  51  60 W22G31    29.88R
MINOT AFB      PTSUNNY   62  56  81 W17G23    29.86R
GARRISON         N/A     62  52  69 W18G28    29.95R
WILLISTON      PTSUNNY   60  49  66 W17G24    30.00R
DICKINSON      MOSUNNY   60  44  55 W15       30.07R
HETTINGER      SUNNY     56  41  57 W12       30.13R
$$

 *****  OTHER AIRPORT OBSERVATIONS IN OUR AREA  *****

CITY           SKY/WX    TMP DP  RH WIND       PRES   REMARKS
WALHALLA       FAIR      64  59  82 MISG      29.62R
GRAFTON AIRPOR CLOUDY    66  57  72 W24G33    29.66R
VALLEY CITY AR PTSUNNY   64  54  68 W23G35    29.86R
CANDO          PTSUNNY   64  55  72 W26G43    29.77R
CAVALIER APRT  PTSUNNY   64  57  77 W17G31    29.62R
GWINNER        FAIR      64  52  63 W23       29.92R
ROLLA          FAIR      61  54  77 W23G30    29.77R
 ***** THE ABOVE OBSERVATIONS ARE NON NWS ARE NOT QUALITY
       CONTROLLED AND MAY MIS-REPORT RAIN FOR SNOW...
$$

  *****  WEATHER ACROSS NORTHERN MINNESOTA  *****

CITY           SKY/WX    TMP DP  RH WIND       PRES   REMARKS
FLAG ISLAND    CLOUDY    63  57  82 W17G23    29.46R
WARROAD        CLOUDY    61  57  88 W17G26    29.53R FOG
ROSEAU         CLOUDY    63  57  82 W14G26    29.55R HAZE
HALLOCK        CLOUDY    66  57  72 W20G33    29.59R
THF RVR FALLS  CLOUDY    63  55  77 W20G26    29.65R
BAUDETTE       CLOUDY    60  56  86 SW16      29.55R
WASKISH        CLOUDY    64  57  77 SW28G40   29.61R
CROOKSTON      CLOUDY    64  55  72 W25G35    29.69R
STEPHEN NDAWN    N/A     64  57  77 W17         N/A
GREENBUSH NDAW   N/A     63  55  77 W17         N/A
$$
  *****  WEATHER ACROSS CENTRAL AND WEST MINNESOTA  *****

CITY           SKY/WX    TMP DP  RH WIND       PRES   REMARKS
FOSSTON        CLOUDY    61  55  82 W18G28    29.71R
BEMIDJI        CLOUDY    62  52  70 W23G31    29.69R
PARK RAPIDS    CLOUDY    65  51  60 W24G38    29.76R
ELBOW LAKE     FAIR      64  51  62 W21G29    29.89S
WADENA         PTSUNNY   64  52  63 W16G29    29.81R
DETROIT LAKES  CLOUDY    64  52  63 W21G35    29.80R
MOORHEAD       SUNNY     66  54  63 W25G31    29.80R
FERGUS FALLS   SUNNY     64  52  63 W18G30    29.86R
MORRIS MN      SUNNY     66  54  63 W16       29.92S
STAPLES        PTSUNNY   64  50  59 W18G24    29.82R
$$
  *****  WEATHER ELSEWHERE ACROSS MINNESOTA  *****

CITY           SKY/WX    TMP DP  RH WIND       PRES   REMARKS
DULUTH         PTSUNNY   66  50  56 W17G31    29.74R
INTRNTL FALLS  LGT RAIN  63  54  72 SW21G37   29.55S
ELY            CLOUDY    63  52  67 W18       29.64S
CLOQUET        NOT AVBL
WHEATON        SUNNY     64  52  63 W14G25    29.94R
BRAINERD       PTSUNNY   66  50  56 W22G29    29.80R
HIBBING        CLOUDY    64  51  62 SW8G20    29.68R
ALEXANDRIA     SUNNY     65  50  58 W20G29    29.90R
SAINT CLOUD    SUNNY     68  49  50 W21G32    29.88S
MINNEAPOLIS    MOSUNNY   68  50  52 W16G24    29.94S
$$

  *****  WEATHER ACROSS SOUTH DAKOTA  *****

CITY           SKY/WX    TMP DP  RH WIND       PRES   REMARKS
SIOUX FALLS    SUNNY     64  52  64 VRB7      30.11R
BROOKINGS      SUNNY     63  50  63 W13       30.09S
WATERTOWN      SUNNY     63  49  60 W10       30.02R
HURON          SUNNY     64  48  56 W9        30.07R
SISSETON         N/A     67  49  52 W22G32    29.93R
ABERDEEN       SUNNY     63  49  60 W13       30.01R
MITCHELL       SUNNY     64  51  62 W12       30.11R
PIERRE         SUNNY     64  44  48 W14       30.11R
MOBRIDGE       SUNNY     64  47  53 W12       30.04R
RAPID CITY     SUNNY     60  43  53 W10       30.24S
$$

  *****  SOME WEATHER IN NEARBY STATES *****

CITY           SKY/WX    TMP DP  RH WIND       PRES   REMARKS
GLASGOW MT     MOSUNNY   54  48  80 NW3       30.10R
GREAT FALLS MT CLEAR     55  40  56 SW10      30.22R
CHEYENNE WY    SUNNY     50  36  58 NW5       30.38R
SCOTTSBLUFF NE PTSUNNY   52  47  83 CALM      30.33R
OMAHA NE       PTSUNNY   66  64  93 N3        30.16R
DES MOINES IA  PTSUNNY   72  62  71 N10       30.09R
DAVENPORT IA   CLOUDY    73  70  90 NW6       30.02R
CHICAGO IL     CLOUDY    76  72  87 W9        29.95R
EAU CLAIRE WI  SUNNY     69  53  56 SW14G23   29.91F
LA CROSSE WI   PTSUNNY   73  54  51 W9        29.97S
$$

  *****  SOME NATIONAL WEATHER *****

CITY           SKY/WX    TMP DP  RH WIND       PRES   REMARKS
LA GUARDIA NY  PTSUNNY   85  65  51 CALM      29.98R
RALEIGH NC     PTSUNNY   79  72  79 S6        30.04R
ATLANTA GA     MOSUNNY   82  71  69 N8        30.03R
NEW ORLEANS LA PTSUNNY   84  76  76 NW8       30.03R HX  93
OKLAHOMA CITY  MOSUNNY   76  70  82 VRB3      30.03R
ALBUQUERQUE NM CLOUDY    72  55  55 CALM      30.29R
SALT LAKE CITY CLEAR     57  42  57 CALM      30.27R
LOS ANGELES CA CLOUDY    66  63  90 W5        29.92R FOG
BOISE ID       CLEAR     58  36  43 SE7       30.23R
SEATTLE WA     PTCLDY    59  53  80 N7        30.19S
$$

*** WEATHER ACROSS MANITOBA...SASKATCHEWAN AND ONTARIO ***
                ***ONTARIO***

CITY           SKY/WX    TMP DP  RH WIND       PRES   REMARKS
GERALDTON      MOSUNNY   70  61  73 S14G20    29.57F
THUNDER BAY    MOSUNNY   70  54  56 SW14G31   29.60F
SIOUX LOOKOUT  CLOUDY    61  57  88 S10G22    29.41F
TORONTO        PTSUNNY   81  64  57 VRB3      29.97S
BIG TROUT LK   SUNNY     70  63  78 S10G17    29.32F
PICKLE LAKE    PTSUNNY   64  54  68 S15G22    29.38F
DRYDEN         LGT RAIN  61  57  88 SW25G33   29.42R FOG
KENORA         LGT RAIN  61  59  94 W18G28    29.41R FOG
$$
                *** MANITOBA***

CITY           SKY/WX    TMP DP  RH WIND       PRES   REMARKS
BRANDON        PTSUNNY   63  55  77 W25G32    29.67R
DAUPHIN        CLOUDY    63  55  77 W16G25    29.59R
ISLAND LAKE    PTSUNNY   64  61  88 S6        29.26S
PILOT MOUND      N/A     61  55  82 W17G29      N/A
THE PAS        MOSUNNY   63  55  77 NW22G29   29.55R
THOMPSON       LGT RAIN  57  55  94 N17G24    29.37R
WINNIPEG       LGT RAIN  61  59  94 W20G32    29.50R
LYNN LAKE        N/A    N/A N/A N/A MISG        N/A
CHURCHILL      LGT RAIN  48  48 100 NE18      29.58F FOG
GILLAM         DRZL/FOG  57  55  94 NE18G28   29.27S VSB 1
$$
                ***SASKATCHEWAN***

CITY           SKY/WX    TMP DP  RH WIND       PRES   REMARKS
ESTEVAN        MOSUNNY   59  52  77 W16G23    29.92R
KINDERSLEY     MOSUNNY   55  50  82 W7        30.03R
LLOYDMINSTER   MOSUNNY   57  46  67 W15       29.97R
PRINCE ALBERT  MOSUNNY   59  55  88 W9        29.82R
REGINA         PTSUNNY   55  52  88 W12       29.92R
YORKTON        MOSUNNY   63  55  77 W17G25    29.76R
N. BATTLEFORD  SUNNY     59  50  72 W12G17    29.95R
LA RONGE       MOSUNNY   61  54  77 W7        29.78R
SASKATOON      MOSUNNY   57  52  82 NW12      29.91R
SWIFT CURRENT  SUNNY     55  48  76 W12       30.04R
$$
NOTE: THESE ARE AUTOMATED STATIONS WITH LIMITED QUALITY CONTROL
      "FAIR" INDICATES FEW OR NO CLOUDS BELOW 12,000 FEET WITH NO
      SIGNIFICANT WEATHER AND/OR OBSTRUCTIONS TO VISIBILITY.
      SKY/WX - SKY CONDITION AND SIGNIFICANT WEATHER.
      TMP - AIR TEMPERATURE.    DP   - DEWPOINT TEMPERATURE.
      RH  - RELATIVE HUMIDITY.  PRES - PRESSURE.
      HX  - HEAT INDEX.         WCI  - WIND CHILL INDEX.
$



USA.gov is the U.S. government's official web portal to all federal, state and local government web resources and services.